Commit Graph

  • e43a3408e0 Include avatar upload parameter in routes Hakan Shehu 2024-12-07 10:58:31 +01:00
  • 2ce11577aa Index node texts for searching Hakan Shehu 2024-12-07 01:41:10 +01:00
  • 954564d1bf Refactor server routes Hakan Shehu 2024-12-06 22:29:58 +01:00
  • 2c0c3b96bf Fix event bus event processing for mutli node broadcasting Hakan Shehu 2024-12-06 03:20:52 +01:00
  • 7c0b0e093d Store window size in app metadata table Hakan Shehu 2024-12-05 21:40:48 +01:00
  • a688c2b719 Rename some tables for clarity Hakan Shehu 2024-12-05 01:11:41 +01:00
  • a462077a8c Fix dockerfile for server Hakan Shehu 2024-12-04 23:12:25 +01:00
  • ba819aa951 Include scripts in Dockerfile Hakan Shehu 2024-12-04 17:35:36 +01:00
  • 6b809d8eb7 Improve server create mutation Hakan Shehu 2024-12-04 17:25:20 +01:00
  • ed92a4dcc1 Remove some processing from bootstraper init Hakan Shehu 2024-12-04 17:20:38 +01:00
  • 1fcf0b135c Refactor socket and sync communications Hakan Shehu 2024-12-04 17:15:58 +01:00
  • 0929e3a4b9 Move cursors inside workspace database Hakan Shehu 2024-12-04 14:25:59 +01:00
  • 7aaf8acf0b Improve emojis and icons Hakan Shehu 2024-12-04 12:14:48 +01:00
  • 4e6c3fedfb Include scripts in the workspace Hakan Shehu 2024-12-04 10:19:58 +01:00
  • f71113dda7 Update to express v5 Hakan Shehu 2024-12-04 07:40:40 +01:00
  • c4fccfb88f Add some extra checks in file service Hakan Shehu 2024-12-03 17:19:08 +01:00
  • 45eda5b196 Refactor sync service workspace credentials Hakan Shehu 2024-12-03 13:52:05 +01:00
  • 704dae1efc Use debug instead of pinojs Hakan Shehu 2024-12-03 13:42:02 +01:00
  • ad899c1c7c Implement node data cleanup job Hakan Shehu 2024-12-03 00:17:23 +01:00
  • 2394f577dc Update MakerSquirrel configuration for Colanode desktop application Ylber Gashi 2024-12-02 23:24:02 +01:00
  • 8156c791fc Fix GitHub Actions workflow to use correct GITHUB_TOKEN secret Ylber Gashi 2024-12-02 23:14:43 +01:00
  • a4c66d04c5 Update executable name for Linux and configure RPM/Deb makers Ylber Gashi 2024-12-02 23:06:10 +01:00
  • d4a84cedcc Refactor logger Hakan Shehu 2024-12-02 19:41:12 +01:00
  • d2e63c00fe Restructure queries Hakan Shehu 2024-12-02 19:08:17 +01:00
  • 0c07068341 Make server event-bus work with multiple instances Hakan Shehu 2024-12-02 18:25:03 +01:00
  • 071d15ae72 Improve mutation error handling Hakan Shehu 2024-12-02 18:07:09 +01:00
  • a9c99043a9 Restructure mutations Hakan Shehu 2024-12-02 14:45:58 +01:00
  • 5fcb427008 More lint improvements Hakan Shehu 2024-12-02 01:33:25 +01:00
  • 3df94f7c40 Fix imports order Hakan Shehu 2024-12-02 00:44:02 +01:00
  • f76db9913d React lint fixes Hakan Shehu 2024-12-01 23:59:41 +01:00
  • 1c204a17dc Lint fixes Hakan Shehu 2024-12-01 23:51:33 +01:00
  • a19c6274b9 Update packages Hakan Shehu 2024-12-01 21:40:17 +01:00
  • 7e11694c65 Fix attributes parsing for interactions Hakan Shehu 2024-11-30 22:23:48 +01:00
  • 5342e0e203 Fix yText changes Hakan Shehu 2024-11-30 22:14:07 +01:00
  • ea61ef46b1 Use cursor based pagination for interaction events syncing Hakan Shehu 2024-11-30 17:48:01 +01:00
  • e792785399 Implement radar service with the new interactions structure Hakan Shehu 2024-11-30 11:43:00 +01:00
  • e63f84a559 Some improvements in logging Hakan Shehu 2024-11-30 11:01:56 +01:00
  • b566603bbc Add trace logs for desktop services Hakan Shehu 2024-11-30 02:25:21 +01:00
  • 2f1155c005 Add logs in database service Hakan Shehu 2024-11-30 01:44:09 +01:00
  • af10888629 Refactor logger Hakan Shehu 2024-11-30 01:40:45 +01:00
  • e8c666bb6f Improve interactions sending from synapse Hakan Shehu 2024-11-29 23:54:29 +01:00
  • 2e776648bd Fix sending pending interactions Hakan Shehu 2024-11-29 23:22:19 +01:00
  • 2d693d06c6 Init workspace database create on workspace create event Hakan Shehu 2024-11-29 22:58:06 +01:00
  • 1755bc341e Cleanup some console logs Hakan Shehu 2024-11-29 22:48:56 +01:00
  • 6ae82332c4 Improve events in synapse service Hakan Shehu 2024-11-29 22:46:16 +01:00
  • 16fdbbd71f Implement interactions Hakan Shehu 2024-11-29 22:27:23 +01:00
  • 4e7828e918 Fix an await in database service init Hakan Shehu 2024-11-28 19:39:33 +01:00
  • cb6972918d Add collaboration sync for desktop Hakan Shehu 2024-11-28 19:12:03 +01:00
  • 09aeec166b Add resync for incomplete transactions Hakan Shehu 2024-11-28 17:55:17 +01:00
  • f33e301eab Use node type for transactions Hakan Shehu 2024-11-28 14:30:04 +01:00
  • f3b7d03eaa Add collaborator removed event in server Hakan Shehu 2024-11-28 11:54:36 +01:00
  • 283fd7d35a Remove unused table in desktop Hakan Shehu 2024-11-28 11:50:38 +01:00
  • 4bd80f4714 Rename some files Hakan Shehu 2024-11-28 11:37:37 +01:00
  • ae8064fbc3 Improve synchronization and collaboration changes Hakan Shehu 2024-11-28 11:35:17 +01:00
  • c320babe80 Add create and delete collaborations jobs Hakan Shehu 2024-11-27 12:41:34 +01:00
  • c76af35e0d Refactor jobs abstraction Hakan Shehu 2024-11-27 11:20:29 +01:00
  • e4dbb56d13 Fix account update Hakan Shehu 2024-11-27 10:50:13 +01:00
  • 4b3df84612 Open URLs in the device browser Hakan Shehu 2024-11-27 01:45:24 +01:00
  • fcfb89a893 Add transaction created event for update and delete node Hakan Shehu 2024-11-27 01:27:43 +01:00
  • 0d439fb030 Fix the query for retreiving unsynced transactions Hakan Shehu 2024-11-27 00:17:25 +01:00
  • c6858c8c74 Add an extra check on transactions status update Hakan Shehu 2024-11-27 00:02:24 +01:00
  • f2feaf5a7b Add a buffer for messages until the socket is authenticated Hakan Shehu 2024-11-26 23:59:16 +01:00
  • fa169b2f7e Fix event callback on sync service Hakan Shehu 2024-11-26 23:31:35 +01:00
  • cf484b5536 Add an event on socket connection open Hakan Shehu 2024-11-26 23:23:32 +01:00
  • 99b94f6f33 New version of syncing Hakan Shehu 2024-11-26 22:21:35 +01:00
  • fd9b945dc5 Add colanode icon Hakan Shehu 2024-11-23 10:29:47 +01:00
  • b6f35ea430 Allow sending messages with file only Hakan Shehu 2024-11-23 09:40:06 +01:00
  • f952278271 Fix a case for sending changes when a new workspace/user is created Hakan Shehu 2024-11-23 09:27:46 +01:00
  • d991514790 Add a case to handle better workspace creation Hakan Shehu 2024-11-23 01:15:44 +01:00
  • 92951f392f Add pino-pretty as direct dependendcy (temp) Hakan Shehu 2024-11-23 00:54:43 +01:00
  • 1e97c0fb3b Add some logs in the server Hakan Shehu 2024-11-23 00:49:47 +01:00
  • aa2807841a Fix error logging and check for deleted files Hakan Shehu 2024-11-23 00:39:52 +01:00
  • 57cdbe4ade Improve UI for file preview Hakan Shehu 2024-11-22 22:30:27 +01:00
  • a9c7d8c412 Fix main window event bus subscription Hakan Shehu 2024-11-22 22:12:15 +01:00
  • 5d5aa6f4b9 File service improvements Hakan Shehu 2024-11-22 21:02:50 +01:00
  • d025058f16 Fix default order for record-list query Hakan Shehu 2024-11-22 20:23:40 +01:00
  • 7336d778b0 Clear subscriptions on window closed Hakan Shehu 2024-11-22 20:10:04 +01:00
  • 95e91319f2 Remove index column from node tables Hakan Shehu 2024-11-22 20:05:25 +01:00
  • d50e3018a1 Add electron-forge github-published in dev dependencies Hakan Shehu 2024-11-22 18:42:44 +01:00
  • 844165664a Add more logs through main services Hakan Shehu 2024-11-22 18:26:58 +01:00
  • 2b356513f5 Add logs for account-service Hakan Shehu 2024-11-22 18:17:38 +01:00
  • 4e9c40fd94 Initiate pino logger Hakan Shehu 2024-11-22 18:11:37 +01:00
  • 63fb4ff300 Update packages Hakan Shehu 2024-11-22 17:50:44 +01:00
  • 8954ca5703 Add message breadcrumb item Hakan Shehu 2024-11-22 15:36:34 +01:00
  • d41d3abd03 Implement message subtypes Hakan Shehu 2024-11-22 13:40:58 +01:00
  • ce3d22c00d Forge config updates Hakan Shehu 2024-11-22 11:24:56 +01:00
  • 5345a9d4c1 Perform node replace on sync fail Hakan Shehu 2024-11-22 01:03:21 +01:00
  • 379310c6ec Enable strict type checking in desktop Hakan Shehu 2024-11-22 00:46:11 +01:00
  • 74cd46abce Add missing argument in copy file Hakan Shehu 2024-11-21 20:05:13 +01:00
  • de1d708c3a File upload/download improvements Hakan Shehu 2024-11-21 20:03:35 +01:00
  • 7f797c4149 Make field values readonly for calendar and board cells Hakan Shehu 2024-11-20 19:00:30 +01:00
  • 9ad756fd90 Improve calendar and board view card Hakan Shehu 2024-11-20 18:50:57 +01:00
  • 32ef591ca0 Improve view create dialog Hakan Shehu 2024-11-20 18:42:32 +01:00
  • d74b29e861 Implement calendar view settings and some renames Hakan Shehu 2024-11-20 18:28:54 +01:00
  • f69eb1dbaa Fix query update for record-list Hakan Shehu 2024-11-20 18:15:49 +01:00
  • a98fc52e78 Database view improvements Hakan Shehu 2024-11-20 13:42:23 +01:00
  • 8d4a57e866 Fix UI issue in emoji and icon picker Hakan Shehu 2024-11-20 12:27:37 +01:00
  • 1049c69046 Improve table views Hakan Shehu 2024-11-20 12:24:37 +01:00
  • e596d6494a Generate default values if a view has filters for records Hakan Shehu 2024-11-20 11:46:44 +01:00
  • 6bb7077f0e Clode node container or modal on delete Hakan Shehu 2024-11-20 09:13:31 +01:00